CW0927 Weather Reports


Display with metric or nautical units.
time (UTC)temp
F
wind
direction
speed
MPH
gust
MPH
rain 1hr
in
rain 24hr
in
rain mn
in
humidity
%
barometer
mb
20260902230840 81 360 0.0 3.0 0.00 0.56 0.56 92 1016.0
20260902230342 81 5 0.0 8.0 0.00 0.56 0.56 92 1015.9
20260902225843 81 17 1.0 8.0 0.00 0.56 0.56 92 1015.9
20260902225346 81 25 0.0 1.0 0.00 0.56 0.56 93 1015.8
20260902224826 81 25 0.0 1.0 0.00 0.56 0.56 93 1015.8
20260902224330 81 30 0.0 1.0 0.00 0.56 0.56 93 1015.9
20260902223830 81 31 0.0 1.0 0.00 0.56 0.56 93 1015.9
20260902223332 81 32 0.0 1.0 0.00 0.56 0.56 93 1015.8
20260902222832 81 32 0.0 1.0 0.00 0.56 0.56 92 1015.6
20260902222334 81 32 0.0 1.0 0.00 0.56 0.56 92 1015.6
20260902221835 81 32 0.0 0.0 0.00 0.56 0.56 92 1015.5
20260902221337 81 32 0.0 0.0 0.00 0.56 0.56 92 1015.5
20260902220840 81 32 0.0 1.0 0.00 0.56 0.56 92 1015.5
20260902220413 81 32 0.0 1.0 0.00 0.56 0.56 92 1015.4
20260902215832 81 32 0.0 1.0 0.00 0.56 0.56 92 1015.4
20260902215343 81 350 0.0 1.0 0.00 0.56 0.56 92 1015.4
20260902214845 81 349 0.0 0.0 0.00 0.56 0.56 92 1015.5
20260902214345 81 349 0.0 0.0 0.00 0.56 0.56 92 1015.6
20260902213849 81 348 0.0 2.0 0.00 0.56 0.56 92 1015.8
20260902213333 81 348 0.0 2.0 0.00 0.56 0.56 92 1015.9
20260902212902 81 348 0.0 1.0 0.00 0.56 0.56 92 1015.9
20260902212342 81 355 0.0 1.0 0.00 0.56 0.56 92 1015.9
20260902211824 81 355 0.0 2.0 0.00 0.56 0.56 92 1016.1
20260902211326 81 355 0.0 2.0 0.00 0.56 0.56 92 1016.2
20260902210828 81 9 0.0 2.0 0.00 0.56 0.56 92 1016.2
20260902210330 81 341 0.0 1.0 0.00 0.56 0.56 92 1016.0
20260902205830 81 341 0.0 1.0 0.00 0.56 0.56 92 1016.0
20260902205333 81 321 0.0 1.0 0.00 0.56 0.56 92 1016.0
20260902204834 81 20 0.0 2.0 0.00 0.56 0.56 92 1015.9
20260902204334 81 20 0.0 2.0 0.00 0.56 0.56 91 1016.0
20260902203837 81 52 0.0 3.0 0.00 0.56 0.56 91 1016.1
20260902203343 81 323 1.0 3.0 0.00 0.56 0.56 91 1015.8
20260902202843 82 5 0.0 2.0 0.00 0.56 0.56 91 1015.5
20260902202345 82 51 0.0 1.0 0.00 0.56 0.56 92 1015.5
20260902201849 82 51 0.0 1.0 0.00 0.56 0.56 91 1015.5
20260902201353 82 53 0.0 0.0 0.00 0.56 0.56 91 1015.5
20260902200842 82 53 0.0 1.0 0.00 0.56 0.56 91 1015.6
20260902200343 82 53 0.0 2.0 0.00 0.56 0.56 91 1016.0
20260902195842 82 53 0.0 3.0 0.00 0.69 0.56 92 1016.1
20260902195344 82 69 0.0 5.0 0.00 0.69 0.56 91 1016.1
20260902194846 82 300 1.0 5.0 0.00 0.69 0.56 91 1016.1
20260902194345 82 345 0.0 3.0 0.00 0.69 0.56 91 1016.2
20260902193845 82 331 0.0 1.0 0.01 0.69 0.56 91 1016.1
20260902193348 82 84 0.0 2.0 0.04 0.69 0.56 91 1016.0
20260902192850 82 283 0.0 3.0 0.13 0.69 0.56 91 1016.2
20260902192348 81 9 1.0 3.0 0.32 0.69 0.56 90 1016.5
20260902191850 81 360 0.0 2.0 0.50 0.69 0.56 90 1016.5
20260902191352 81 350 1.0 2.0 0.56 0.69 0.56 90 1016.4
20260902190840 82 302 0.0 2.0 0.56 0.69 0.56 89 1016.1
20260902190324 82 264 0.0 1.0 0.56 0.69 0.56 90 1016.2
20260902185825 82 263 0.0 1.0 0.56 0.69 0.56 89 1016.5
20260902185348 82 245 0.0 4.0 0.56 0.69 0.56 89 1016.7
20260902184832 82 9 1.0 4.0 0.56 0.69 0.56 89 1016.7
20260902184331 82 295 0.0 2.0 0.56 0.69 0.56 89 1016.7
20260902183835 82 54 0.0 3.0 0.55 0.68 0.55 89 1016.7
20260902183340 82 54 0.0 7.0 0.52 0.65 0.52 88 1016.7
20260902182843 83 140 3.0 10.0 0.42 0.55 0.42 85 1016.9
20260902182346 86 123 5.0 10.0 0.22 0.35 0.22 82 1016.9
20260902181856 89 80 3.0 10.0 0.05 0.18 0.05 76 1016.8
20260902181337 91 36 1.0 5.0 0.00 0.13 0.00 73 1016.5
20260902180838 92 10 1.0 5.0 0.00 0.13 0.00 71 1016.5
20260902180341 92 132 1.0 5.0 0.00 0.13 0.00 72 1016.7
20260902175840 91 305 1.0 4.0 0.00 0.13 0.00 74 1016.7
20260902175341 92 46 1.0 4.0 0.00 0.13 0.00 75 1016.7
20260902174823 91 30 1.0 4.0 0.00 0.13 0.00 75 1016.7
20260902174325 91 57 1.0 5.0 0.00 0.13 0.00 74 1016.8
20260902173830 91 65 2.0 5.0 0.00 0.13 0.00 72 1016.8
20260902173334 92 22 0.0 3.0 0.00 0.13 0.00 75 1016.9
20260902172833 91 25 1.0 3.0 0.00 0.13 0.00 76 1016.8
20260902172403 90 36 1.0 5.0 0.00 0.13 0.00 77 1016.9
20260902171844 89 40 1.0 6.0 0.00 0.13 0.00 72 1017.0
20260902171347 91 85 3.0 6.0 0.00 0.13 0.00 71 1017.1
20260902170848 90 104 1.0 9.0 0.00 0.13 0.00 74 1017.3
20260902170352 89 325 1.0 9.0 0.00 0.13 0.00 73 1017.3
20260902165852 89 70 2.0 5.0 0.00 0.13 0.00 74 1017.4
20260902165401 90 87 2.0 7.0 0.00 0.13 0.00 72 1017.4
20260902164838 90 36 2.0 7.0 0.00 0.13 0.00 74 1017.5
20260902164340 90 126 2.0 6.0 0.00 0.13 0.00 74 1017.5
20260902163841 90 102 3.0 6.0 0.00 0.13 0.00 73 1017.4
20260902163325 89 71 0.0 5.0 0.00 0.13 0.00 77 1017.4
20260902162827 89 65 0.0 5.0 0.00 0.13 0.00 78 1017.5
20260902162331 90 34 2.0 5.0 0.00 0.13 0.00 77 1017.5
20260902161831 89 65 0.0 5.0 0.00 0.13 0.00 77 1017.5
20260902161401 89 44 2.0 5.0 0.00 0.13 0.00 80 1017.7
20260902160842 88 76 2.0 4.0 0.00 0.13 0.00 77 1017.7
20260902160346 87 9 0.0 3.0 0.00 0.13 0.00 79 1017.8
20260902155849 88 11 1.0 3.0 0.00 0.13 0.00 79 1017.9
20260902155332 87 94 0.0 3.0 0.00 0.13 0.00 78 1018.0
20260902154834 87 69 1.0 3.0 0.00 0.13 0.00 79 1018.0
20260902154334 87 27 0.0 4.0 0.00 0.13 0.00 81 1018.0
20260902153836 87 15 1.0 4.0 0.00 0.13 0.00 78 1018.1
20260902153337 88 113 1.0 4.0 0.00 0.13 0.00 78 1018.2
20260902152836 87 333 0.0 4.0 0.00 0.13 0.00 79 1018.2
20260902152339 87 57 0.0 4.0 0.00 0.13 0.00 80 1018.2
20260902151840 87 22 1.0 4.0 0.00 0.13 0.00 80 1018.3
20260902151321 86 16 0.0 4.0 0.00 0.13 0.00 80 1018.2
20260902150830 85 24 1.0 4.0 0.00 0.13 0.00 82 1018.2
20260902150333 85 122 1.0 4.0 0.00 0.13 0.00 83 1018.2
20260902145831 85 98 1.0 3.0 0.00 0.13 0.00 82 1018.3
20260902145401 85 111 0.0 3.0 0.00 0.13 0.00 84 1018.2
20260902144843 84 107 1.0 3.0 0.00 0.13 0.00 84 1018.2
20260902144343 84 54 0.0 3.0 0.00 0.13 0.00 85 1018.2
20260902143832 85 58 1.0 4.0 0.00 0.13 0.00 84 1018.2
20260902143335 84 53 1.0 4.0 0.00 0.13 0.00 85 1018.3
20260902142837 85 12 0.0 2.0 0.00 0.13 0.00 84 1018.2
20260902142341 85 117 0.0 5.0 0.00 0.13 0.00 84 1018.2
20260902141843 85 5 1.0 5.0 0.00 0.13 0.00 84 1018.2
20260902141344 85 121 1.0 5.0 0.00 0.13 0.00 86 1018.1
20260902140848 84 36 1.0 5.0 0.00 0.13 0.00 86 1018.1
20260902140349 84 48 0.0 3.0 0.00 0.13 0.00 88 1018.1
20260902135858 84 67 1.0 4.0 0.00 0.13 0.00 89 1018.0
20260902135338 83 66 1.0 4.0 0.00 0.13 0.00 91 1018.0
20260902134835 82 69 1.0 3.0 0.00 0.13 0.00 94 1018.1
20260902134337 81 44 1.0 3.0 0.00 0.13 0.00 95 1018.0
20260902133838 81 61 1.0 3.0 0.00 0.13 0.00 96 1018.0
20260902133339 81 84 0.0 3.0 0.00 0.13 0.00 96 1018.0
20260902132840 81 40 0.0 3.0 0.00 0.13 0.00 96 1018.0
20260902132342 80 45 1.0 2.0 0.00 0.13 0.00 96 1018.0
20260902131839 80 43 0.0 1.0 0.00 0.13 0.00 96 1018.2
20260902131341 80 331 0.0 2.0 0.00 0.13 0.00 96 1018.2
20260902130844 80 9 0.0 2.0 0.00 0.13 0.00 96 1018.1
20260902130327 80 5 0.0 2.0 0.00 0.13 0.00 96 1018.1
20260902125835 79 10 0.0 3.0 0.00 0.13 0.00 97 1018.2
20260902125338 79 322 0.0 3.0 0.00 0.13 0.00 97 1018.3
20260902124835 78 319 0.0 2.0 0.00 0.13 0.00 96 1018.3
20260902124338 78 5 0.0 1.0 0.00 0.13 0.00 96 1018.2
20260902123840 78 19 0.0 3.0 0.00 0.13 0.00 96 1018.2
20260902123342 78 21 0.0 3.0 0.00 0.13 0.00 96 1018.0
20260902122822 78 336 1.0 3.0 0.00 0.13 0.00 96 1018.1
20260902122353 78 9 0.0 1.0 0.00 0.13 0.00 96 1018.1
20260902121836 78 5 0.0 1.0 0.00 0.13 0.00 96 1018.1
20260902121341 77 336 0.0 2.0 0.00 0.13 0.00 96 1018.1
20260902120845 77 281 0.0 2.0 0.00 0.13 0.00 96 1018.1
20260902120348 77 21 0.0 1.0 0.00 0.13 0.00 95 1018.1
20260902115827 77 21 0.0 1.0 0.00 0.13 0.00 95 1018.0
20260902115357 77 20 0.0 1.0 0.00 0.13 0.00 95 1018.0
20260902114834 77 38 0.0 0.0 0.00 0.13 0.00 95 1017.9
20260902114405 76 38 0.0 0.0 0.00 0.13 0.00 95 1017.9
20260902113846 76 38 0.0 0.0 0.00 0.13 0.00 95 1018.0
20260902113350 76 38 0.0 0.0 0.00 0.13 0.00 95 1018.0
20260902112849 76 38 0.0 0.0 0.00 0.13 0.00 95 1017.9
20260902112330 76 38 0.0 0.0 0.00 0.13 0.00 95 1017.6
20260902111901 76 38 0.0 0.0 0.00 0.13 0.00 94 1017.6
20260902111342 76 38 0.0 0.0 0.00 0.13 0.00 94 1017.6
20260902110846 76 38 0.0 0.0 0.00 0.13 0.00 94 1017.6
20260902110338 76 38 0.0 0.0 0.00 0.13 0.00 94 1017.6
20260902105840 76 51 0.0 0.0 0.00 0.13 0.00 94 1017.5
20260902105323 76 53 0.0 0.0 0.00 0.13 0.00 94 1017.6
20260902104823 76 53 0.0 0.0 0.00 0.13 0.00 94 1017.6
20260902104334 76 53 0.0 0.0 0.00 0.13 0.00 94 1017.5
20260902103839 76 53 0.0 0.0 0.00 0.13 0.00 94 1017.5
20260902103344 76 53 0.0 0.0 0.00 0.13 0.00 94 1017.4
20260902102845 76 53 0.0 0.0 0.00 0.13 0.00 94 1017.4
20260902102349 76 53 0.0 0.0 0.00 0.13 0.00 94 1017.3
20260902101853 76 53 0.0 0.0 0.00 0.13 0.00 94 1017.2
20260902101336 76 53 0.0 0.0 0.00 0.13 0.00 94 1017.3
20260902100839 76 53 0.0 0.0 0.00 0.13 0.00 94 1017.4
20260902100341 76 53 0.0 0.0 0.00 0.13 0.00 94 1017.4
20260902095841 76 53 0.0 0.0 0.00 0.13 0.00 94 1017.3
20260902095342 76 53 0.0 0.0 0.00 0.13 0.00 94 1017.2
20260902094841 76 53 0.0 0.0 0.00 0.13 0.00 94 1017.2
20260902094343 76 53 0.0 0.0 0.00 0.13 0.00 94 1017.2
20260902093844 76 53 0.0 0.0 0.00 0.13 0.00 94 1017.2
20260902093327 76 53 0.0 0.0 0.00 0.13 0.00 94 1017.0
20260902092834 76 53 0.0 0.0 0.00 0.13 0.00 94 1016.9
20260902092336 76 53 0.0 0.0 0.00 0.13 0.00 94 1016.9
20260902091839 76 53 0.0 0.0 0.00 0.13 0.00 94 1016.9
20260902091342 76 53 0.0 0.0 0.00 0.13 0.00 94 1016.8
20260902090844 76 53 0.0 0.0 0.00 0.13 0.00 93 1016.7
20260902090325 76 53 0.0 0.0 0.00 0.13 0.00 93 1016.7
20260902085855 76 53 0.0 0.0 0.00 0.13 0.00 93 1016.7
20260902085339 76 53 0.0 0.0 0.00 0.13 0.00 93 1016.6
20260902084841 76 53 0.0 0.0 0.00 0.13 0.00 93 1016.6
20260902084323 76 53 0.0 0.0 0.00 0.13 0.00 93 1016.6
20260902083825 76 53 0.0 0.0 0.00 0.13 0.00 93 1016.6
20260902083335 76 63 0.0 0.0 0.00 0.13 0.00 93 1016.7
20260902082836 76 63 0.0 0.0 0.00 0.13 0.00 93 1016.8
20260902082338 76 63 0.0 0.0 0.00 0.13 0.00 93 1016.8
20260902081840 77 66 0.0 0.0 0.00 0.13 0.00 93 1016.8
20260902081324 77 66 0.0 0.0 0.00 0.13 0.00 93 1016.8
20260902080827 77 66 0.0 0.0 0.00 0.13 0.00 93 1016.7
20260902080330 76 66 0.0 0.0 0.00 0.13 0.00 93 1016.7
20260902075830 76 66 0.0 0.0 0.00 0.14 0.00 93 1016.7
20260902075327 76 66 0.0 0.0 0.00 0.14 0.00 92 1016.7
20260902074829 76 66 0.0 0.0 0.00 0.14 0.00 92 1016.9
20260902074332 76 66 0.0 0.0 0.00 0.14 0.00 92 1016.9
20260902073833 76 66 0.0 0.0 0.00 0.14 0.00 92 1016.9
20260902073336 76 66 0.0 0.0 0.00 0.14 0.00 92 1016.9
20260902072837 76 66 0.0 0.0 0.00 0.14 0.00 92 1016.9
20260902072339 76 66 0.0 0.0 0.00 0.14 0.00 92 1017.0
20260902071840 76 66 0.0 0.0 0.00 0.14 0.00 92 1017.1
20260902071322 76 66 0.0 0.0 0.00 0.14 0.00 92 1017.1
20260902070825 76 66 0.0 0.0 0.00 0.14 0.00 92 1017.1
20260902070330 76 66 0.0 0.0 0.00 0.14 0.00 92 1017.1
20260902065833 76 66 0.0 0.0 0.00 0.14 0.00 92 1017.0
20260902065336 76 66 0.0 0.0 0.00 0.14 0.00 92 1017.1
20260902064838 76 66 0.0 0.0 0.00 0.14 0.00 92 1017.2
20260902064336 76 66 0.0 0.0 0.00 0.14 0.00 92 1017.2
20260902063838 76 66 0.0 0.0 0.00 0.14 0.00 92 1017.3
20260902063340 76 66 0.0 0.0 0.00 0.14 0.00 92 1017.3
20260902062840 76 66 0.0 0.0 0.00 0.14 0.00 91 1017.4
20260902062323 76 66 0.0 0.0 0.00 0.14 0.00 91 1017.4
20260902061853 76 66 0.0 0.0 0.00 0.14 0.00 91 1017.4
20260902061402 77 66 0.0 0.0 0.00 0.14 0.00 91 1017.3
20260902060823 77 66 0.0 0.0 0.00 0.14 0.00 91 1017.3
20260902060326 77 66 0.0 0.0 0.00 0.14 0.00 91 1017.4
20260902055854 77 66 0.0 0.0 0.00 0.14 0.00 91 1017.4
20260902055336 77 66 0.0 0.0 0.00 0.14 0.00 91 1017.3
20260902054839 77 66 0.0 0.0 0.00 0.14 0.00 91 1017.4
20260902054338 77 66 0.0 0.0 0.00 0.14 0.00 91 1017.5
20260902053841 77 66 0.0 0.0 0.00 0.14 0.00 91 1017.5
20260902053326 77 66 0.0 0.0 0.00 0.14 0.00 91 1017.5
20260902052856 77 66 0.0 0.0 0.00 0.14 0.00 91 1017.5
20260902052338 77 66 0.0 0.0 0.00 0.14 0.00 91 1017.5
20260902051841 77 66 0.0 0.0 0.00 0.14 0.00 91 1017.5
20260902051324 77 66 0.0 0.0 0.00 0.14 0.00 91 1017.5
20260902050825 77 66 0.0 0.0 0.00 0.14 0.00 91 1017.5
20260902050335 77 66 0.0 0.0 0.00 0.14 0.00 91 1017.5
20260902045835 77 66 0.0 0.0 0.00 0.14 0.00 91 1017.3
20260902045338 77 66 0.0 0.0 0.00 0.14 0.00 91 1017.2
20260902044839 77 66 0.0 0.0 0.00 0.14 0.00 91 1017.3
20260902044341 78 66 0.0 0.0 0.00 0.14 0.00 91 1017.3
20260902043839 78 66 0.0 0.0 0.00 0.14 0.00 91 1017.4
20260902043343 78 66 0.0 0.0 0.00 0.14 0.00 91 1017.4
20260902042823 78 66 0.0 0.0 0.00 0.14 0.00 91 1017.5
20260902042324 78 66 0.0 0.0 0.00 0.14 0.00 90 1017.5
20260902041855 78 66 0.0 0.0 0.00 0.14 0.00 90 1017.6
20260902041342 78 66 0.0 0.0 0.00 0.14 0.00 90 1017.7
20260902040824 78 66 0.0 0.0 0.00 0.14 0.00 90 1017.9
20260902040356 78 66 0.0 0.0 0.00 0.14 0.00 90 1017.9
20260902035834 78 66 0.0 0.0 0.00 0.14 0.14 90 1017.9
20260902035338 78 66 0.0 0.0 0.00 0.14 0.14 90 1017.9
20260902034842 78 66 0.0 0.0 0.00 0.14 0.14 90 1018.0
20260902034347 78 66 0.0 0.0 0.00 0.14 0.14 90 1018.1
20260902033847 78 66 0.0 0.0 0.00 0.14 0.14 90 1018.1
20260902033339 78 66 0.0 0.0 0.00 0.14 0.14 90 1018.2
20260902032841 78 66 0.0 0.0 0.00 0.14 0.14 90 1018.3
20260902032325 78 66 0.0 0.0 0.00 0.14 0.14 90 1018.3
20260902031829 78 66 0.0 0.0 0.00 0.14 0.14 90 1018.3
20260902031328 78 66 0.0 0.0 0.00 0.14 0.14 90 1018.2
20260902030828 78 66 0.0 0.0 0.00 0.14 0.14 90 1018.3
20260902030329 79 66 0.0 0.0 0.00 0.14 0.14 90 1018.3
20260902025827 79 66 0.0 0.0 0.00 0.14 0.14 90 1018.3
20260902025326 79 66 0.0 0.0 0.00 0.14 0.14 90 1018.4
20260902024826 79 66 0.0 0.0 0.00 0.14 0.14 90 1018.4
20260902024326 79 66 0.0 0.0 0.00 0.14 0.14 89 1018.4
20260902023829 79 66 0.0 0.0 0.00 0.14 0.14 89 1018.4
20260902023334 79 66 0.0 0.0 0.00 0.14 0.14 89 1018.4
20260902022900 79 66 0.0 0.0 0.00 0.14 0.14 89 1018.4
20260902022323 79 66 0.0 0.0 0.00 0.14 0.14 89 1018.5
20260902021827 79 66 0.0 0.0 0.00 0.14 0.14 89 1018.5
20260902021331 79 66 0.0 0.0 0.00 0.14 0.14 89 1018.5
20260902020835 79 66 0.0 0.0 0.00 0.14 0.14 89 1018.5
20260902020346 79 66 0.0 0.0 0.00 0.14 0.14 89 1018.4
20260902015847 79 66 0.0 1.0 0.00 0.14 0.14 89 1018.3
20260902015330 79 66 0.0 1.0 0.00 0.14 0.14 89 1018.3
20260902014834 79 66 0.0 0.0 0.00 0.14 0.14 89 1018.3
20260902014406 79 66 0.0 0.0 0.00 0.14 0.14 89 1018.3
20260902013849 79 66 0.0 0.0 0.00 0.14 0.14 89 1018.2
20260902013334 79 66 0.0 0.0 0.00 0.14 0.14 89 1018.2
20260902012833 79 66 0.0 0.0 0.00 0.14 0.14 89 1018.1
20260902012336 79 66 0.0 1.0 0.00 0.14 0.14 89 1018.1
20260902011840 80 66 0.0 1.0 0.00 0.14 0.14 88 1018.0
20260902011324 80 43 0.0 0.0 0.00 0.14 0.14 88 1018.0
20260902010855 80 43 0.0 0.0 0.00 0.14 0.14 88 1018.0
20260902010334 80 43 0.0 0.0 0.00 0.14 0.14 88 1018.0
20260902005833 80 43 0.0 0.0 0.00 0.14 0.14 88 1018.1
20260902005342 80 43 0.0 0.0 0.00 0.14 0.14 88 1018.0
20260902004846 80 43 0.0 0.0 0.00 0.14 0.14 87 1018.0
20260902004329 80 43 0.0 0.0 0.00 0.14 0.14 87 1018.0
20260902003833 80 43 0.0 0.0 0.00 0.14 0.14 87 1018.0
20260902003339 80 43 0.0 0.0 0.00 0.14 0.14 86 1017.9
20260902002835 80 43 0.0 0.0 0.00 0.14 0.14 86 1017.9
20260902002340 81 43 0.0 1.0 0.00 0.14 0.14 86 1017.9
20260902001824 81 43 0.0 1.0 0.00 0.14 0.14 86 1017.8
20260902001328 81 43 0.0 1.0 0.00 0.14 0.14 85 1017.8
20260902000859 81 43 0.0 1.0 0.00 0.14 0.14 85 1017.7
20260902000344 81 44 0.0 2.0 0.00 0.14 0.14 85 1017.7
20260901235823 81 80 0.0 2.0 0.00 0.14 0.14 85 1017.7
20260901235357 81 80 0.0 2.0 0.00 0.14 0.14 84 1017.8
20260901234839 81 89 0.0 2.0 0.00 0.14 0.14 85 1017.8
20260901234343 82 90 0.0 1.0 0.00 0.14 0.14 85 1017.8
20260901233848 82 90 0.0 1.0 0.00 0.14 0.14 84 1017.7
20260901233333 82 90 0.0 1.0 0.00 0.14 0.14 84 1017.8
20260901232834 82 90 0.0 1.0 0.00 0.14 0.14 84 1017.9
20260901232332 82 91 0.0 1.0 0.00 0.14 0.14 84 1017.8
20260901231835 82 59 0.0 1.0 0.00 0.14 0.14 84 1017.6
20260901231407 82 59 0.0 1.0 0.00 0.14 0.14 84 1017.5